Change the Weather History Date:

Sunday, December 8, 2013

  Actual Average Record
Temperature  
Mean Temperature 46 °F -  
Max Temperature 50 °F 41 °F 59 °F (2000)
Min Temperature 42 °F 32 °F 21 °F (2003)
Degree Days  
Heating Degree Days 19    
Moisture  
Dew Point 43 °F    
Average Humidity 87    
Maximum Humidity 100    
Minimum Humidity 76    
Precipitation  
Precipitation 0.00 in - - ()
Sea Level Pressure  
Sea Level Pressure 30.24 in    
Wind  
Wind Speed 7 mph ()    
Max Wind Speed 14 mph    
Max Gust Speed 26 mph    
Visibility 6.1 miles    
Events Rain    
Averages and records for this station are not official NWS values.
T = Trace of Precipitation, MM = Missing Value Source: Averaged Metar Reports

Daily Weather History Graph

Daily Weather History Graph

Search for Another Location

Airport or City:

Trip Planner

Search our weather history database for the weather conditions in past years. The results will help you decide how hot, cold, wet, or windy it might be!

Date:

Astronomy

Dec. 08, 2013 Rise Set
Actual Time 8:32 AM CET 4:31 PM CET
Civil Twilight 7:53 AM CET 5:11 PM CET
Nautical Twilight 7:10 AM CET 5:54 PM CET
Astronomical Twilight 6:29 AM CET 6:34 PM CET
Moon 12:12 PM CET (12/8) 11:38 PM CET (12/8)
Length of Visible Light 9h 18m
Length of Day
7h 58m
Waxing Crescent, 37% of the Moon is Illuminated
Dec 8
Waxing Crescent
Dec 9
First Quarter
Dec 17
Full
Dec 25
Last Quarter
Jan 1
New

Hourly Weather History & Observations

Time (CET) Temp. Windchill Dew Point Humidity Pressure Visibility Wind Dir Wind Speed Gust Speed Precip Events Conditions
12:25 AM 44.6 °F 41.4 °F 41.0 °F 87% 30.24 in 6.2 mi SW 5.8 mph - N/A   Overcast
12:35 AM 44.6 °F 42.2 °F 41.0 °F 87% 30.24 in 6.2 mi SW 4.6 mph - N/A   Overcast
12:47 AM 44.6 °F 41.4 °F 41.0 °F 87% 30.24 in 6.2 mi SW 5.8 mph - N/A   Overcast
12:55 AM 44.6 °F 41.4 °F 41.0 °F 87% 30.24 in 6.2 mi WSW 5.8 mph - N/A   Overcast
1:02 AM 44.6 °F 41.4 °F 41.0 °F 87% 30.24 in 6.2 mi SW 5.8 mph - N/A   Overcast
1:25 AM 44.6 °F 41.4 °F 41.0 °F 87% 30.24 in 6.2 mi WSW 5.8 mph - N/A   Mostly Cloudy
1:29 AM 44.6 °F 41.4 °F 41.0 °F 87% 30.24 in 6.2 mi WSW 5.8 mph - N/A   Overcast
1:55 AM 44.6 °F 41.4 °F 41.0 °F 87% 30.24 in 6.2 mi SW 5.8 mph - N/A   Overcast
2:25 AM 44.6 °F 41.4 °F 41.0 °F 87% 30.24 in 6.2 mi WSW 5.8 mph - N/A   Overcast
2:55 AM 44.6 °F 42.2 °F 41.0 °F 87% 30.24 in 6.2 mi SW 4.6 mph - N/A   Overcast
3:25 AM 42.8 °F 40.1 °F 41.0 °F 93% 30.24 in 6.2 mi SSW 4.6 mph - N/A   Overcast
3:55 AM 42.8 °F 39.3 °F 41.0 °F 93% 30.24 in 6.2 mi SSW 5.8 mph - N/A   Overcast
4:10 AM 42.8 °F 39.3 °F 41.0 °F 93% 30.24 in 6.2 mi SW 5.8 mph - N/A   Overcast
4:20 AM 42.8 °F 39.3 °F 41.0 °F 93% 30.24 in 6.2 mi SW 5.8 mph - N/A   Overcast
4:25 AM 42.8 °F 38.6 °F 41.0 °F 93% 30.24 in 6.2 mi SW 6.9 mph - N/A   Overcast
4:55 AM 42.8 °F 38.6 °F 41.0 °F 93% 30.24 in 6.2 mi SW 6.9 mph - N/A   Mostly Cloudy
4:59 AM 42.8 °F 38.6 °F 41.0 °F 93% 30.24 in 6.2 mi SW 6.9 mph - N/A   Mostly Cloudy
5:25 AM 42.8 °F 39.3 °F 41.0 °F 93% 30.24 in 6.2 mi SW 5.8 mph - N/A   Mostly Cloudy
5:26 AM 42.8 °F 39.3 °F 41.0 °F 93% 30.24 in 6.2 mi SW 5.8 mph - N/A   Light Drizzle
5:35 AM 42.8 °F 39.3 °F 41.0 °F 93% 30.24 in 6.2 mi SW 5.8 mph - N/A   Mostly Cloudy
5:45 AM 42.8 °F 38.6 °F 41.0 °F 93% 30.24 in 6.2 mi SW 6.9 mph - N/A Rain Light Rain
5:55 AM 42.8 °F 39.3 °F 42.8 °F 100% 30.24 in 6.2 mi SW 5.8 mph - N/A   Mostly Cloudy
6:19 AM 44.6 °F 41.4 °F 42.8 °F 93% 30.24 in 6.2 mi SW 5.8 mph - N/A Rain Light Rain
6:25 AM 44.6 °F 40.7 °F 42.8 °F 93% 30.24 in 6.2 mi SW 6.9 mph - N/A   Light Drizzle
6:31 AM 42.8 °F 38.6 °F 41.0 °F 93% 30.24 in 6.2 mi SW 6.9 mph - N/A   Mostly Cloudy
6:36 AM 42.8 °F 38.6 °F 42.8 °F 100% 30.24 in 6.2 mi SW 6.9 mph - N/A   Mostly Cloudy
6:42 AM 42.8 °F 38.6 °F 41.0 °F 93% 30.24 in 6.2 mi SW 6.9 mph - N/A   Mostly Cloudy
6:55 AM 42.8 °F 38.6 °F 41.0 °F 93% 30.24 in 6.2 mi SW 6.9 mph - N/A   Mostly Cloudy
7:25 AM 44.6 °F 40.2 °F 42.8 °F 93% 30.24 in 6.2 mi SW 8.1 mph - N/A   Drizzle
7:29 AM 44.6 °F 40.2 °F 42.8 °F 93% 30.24 in 5.6 mi SW 8.1 mph - N/A   Drizzle
7:37 AM 44.6 °F 40.2 °F 42.8 °F 93% 30.24 in 6.2 mi SW 8.1 mph - N/A   Mostly Cloudy
7:48 AM 44.6 °F 40.2 °F 42.8 °F 93% 30.24 in 6.2 mi SW 8.1 mph - N/A   Mostly Cloudy
7:55 AM 44.6 °F 40.2 °F 42.8 °F 93% 30.24 in 6.2 mi SW 8.1 mph - N/A   Mostly Cloudy
7:59 AM 42.8 °F 38.0 °F 42.8 °F 100% 30.24 in 5.6 mi SW 8.1 mph - N/A   Scattered Clouds
8:03 AM 44.6 °F 40.2 °F 42.8 °F 93% 30.24 in 5.6 mi SW 8.1 mph - N/A   Scattered Clouds
8:09 AM 44.6 °F 40.2 °F 42.8 °F 93% 30.24 in 5.0 mi SW 8.1 mph - N/A   Mostly Cloudy
8:19 AM 44.6 °F 40.7 °F 42.8 °F 93% 30.24 in 5.0 mi SW 6.9 mph - N/A   Mostly Cloudy
8:25 AM 42.8 °F 38.6 °F 42.8 °F 100% 30.24 in 5.0 mi SW 6.9 mph - N/A   Overcast
8:50 AM 44.6 °F 40.7 °F 42.8 °F 93% 30.24 in 5.0 mi SW 6.9 mph - N/A   Mostly Cloudy
8:55 AM 44.6 °F 40.7 °F 42.8 °F 93% 30.21 in 5.0 mi SSW 6.9 mph - N/A   Overcast
9:15 AM 44.6 °F 40.2 °F 42.8 °F 93% 30.21 in 6.2 mi SW 8.1 mph - N/A   Overcast
9:25 AM 44.6 °F 39.7 °F 42.8 °F 93% 30.21 in 6.2 mi SW 9.2 mph - N/A   Overcast
9:44 AM 44.6 °F 40.2 °F 42.8 °F 93% 30.24 in 6.2 mi SW 8.1 mph - N/A   Overcast
9:55 AM 46.4 °F 41.9 °F 42.8 °F 87% 30.24 in 6.2 mi SW 9.2 mph - N/A   Overcast
10:02 AM 46.4 °F 42.4 °F 42.8 °F 87% 30.24 in 6.2 mi SW 8.1 mph - N/A   Overcast
10:21 AM 46.4 °F 42.9 °F 42.8 °F 87% 30.24 in 6.2 mi WSW 6.9 mph - N/A   Overcast
10:25 AM 46.4 °F 43.5 °F 42.8 °F 87% 30.24 in 6.2 mi SW 5.8 mph - N/A   Overcast
10:40 AM 46.4 °F 41.9 °F 42.8 °F 87% 30.27 in 6.2 mi SW 9.2 mph - N/A   Overcast
10:44 AM 46.4 °F 42.4 °F 42.8 °F 87% 30.27 in 6.2 mi SW 8.1 mph - N/A   Overcast
10:48 AM 46.4 °F 42.4 °F 42.8 °F 87% 30.27 in 6.2 mi SW 8.1 mph - N/A   Overcast
10:55 AM 46.4 °F 42.9 °F 42.8 °F 87% 30.27 in 6.2 mi SW 6.9 mph - N/A   Overcast
11:09 AM 46.4 °F 42.4 °F 42.8 °F 87% 30.27 in 6.2 mi SW 8.1 mph - N/A   Overcast
11:25 AM 46.4 °F 41.9 °F 42.8 °F 87% 30.27 in 6.2 mi SW 9.2 mph - N/A   Overcast
11:32 AM 46.4 °F 41.9 °F 42.8 °F 87% 30.27 in 6.2 mi SW 9.2 mph - N/A   Overcast
11:34 AM 46.4 °F 41.9 °F 42.8 °F 87% 30.27 in 6.2 mi WSW 9.2 mph - N/A   Overcast
11:42 AM 46.4 °F 41.9 °F 42.8 °F 87% 30.27 in 6.2 mi WSW 9.2 mph - N/A   Mostly Cloudy
11:47 AM 46.4 °F 41.5 °F 42.8 °F 87% 30.27 in 6.2 mi WSW 10.4 mph - N/A   Overcast
11:55 AM 46.4 °F 41.5 °F 42.8 °F 87% 30.24 in 6.2 mi WSW 10.4 mph - N/A Rain Light Drizzle
11:59 AM 48.2 °F - 42.8 °F 82% 30.24 in 6.2 mi WSW 10.4 mph - N/A   Light Drizzle
12:04 PM 48.2 °F - 42.8 °F 82% 30.24 in 6.2 mi SW 10.4 mph - N/A   Mostly Cloudy
12:09 PM 48.2 °F - 44.6 °F 87% 30.24 in 6.2 mi SW 10.4 mph - N/A   Scattered Clouds
12:14 PM 48.2 °F - 44.6 °F 87% 30.24 in 6.2 mi WSW 9.2 mph - N/A   Mostly Cloudy
12:15 PM 48.2 °F - 42.8 °F 82% 30.24 in 6.2 mi WSW 10.4 mph - N/A   Overcast
12:25 PM 48.2 °F - 42.8 °F 82% 30.24 in 6.2 mi WSW 11.5 mph - N/A   Mostly Cloudy
12:29 PM 48.2 °F - 42.8 °F 82% 30.24 in 6.2 mi WSW 11.5 mph - N/A   Mostly Cloudy
12:35 PM 48.2 °F - 42.8 °F 82% 30.24 in 6.2 mi WSW 10.4 mph - N/A   Mostly Cloudy
12:43 PM 48.2 °F - 42.8 °F 82% 30.24 in 6.2 mi SW 10.4 mph - N/A   Overcast
12:47 PM 48.2 °F - 42.8 °F 82% 30.24 in 6.2 mi SW 9.2 mph - N/A   Mostly Cloudy
12:51 PM 48.2 °F - 42.8 °F 82% 30.24 in 6.2 mi SW 8.1 mph - N/A   Overcast
12:55 PM 48.2 °F - 42.8 °F 82% 30.24 in 6.2 mi SW 8.1 mph - N/A   Overcast
1:25 PM 48.2 °F - 42.8 °F 82% 30.24 in 6.2 mi WSW 9.2 mph - N/A   Mostly Cloudy
1:32 PM 48.2 °F - 42.8 °F 82% 30.24 in 6.2 mi SW 9.2 mph - N/A   Overcast
1:39 PM 48.2 °F - 42.8 °F 82% 30.24 in 6.2 mi SW 9.2 mph - N/A   Overcast
1:55 PM 48.2 °F - 42.8 °F 82% 30.24 in 6.2 mi WSW 10.4 mph - N/A   Overcast
1:59 PM 48.2 °F - 42.8 °F 82% 30.24 in 6.2 mi WSW 11.5 mph - N/A   Overcast
2:25 PM 50.0 °F - 42.8 °F 76% 30.21 in 6.2 mi WSW 10.4 mph - N/A   Overcast
2:31 PM 50.0 °F - 42.8 °F 76% 30.21 in 6.2 mi WSW 9.2 mph - N/A   Mostly Cloudy
2:55 PM 50.0 °F - 42.8 °F 76% 30.21 in 6.2 mi WSW 11.5 mph - N/A   Overcast
3:25 PM 50.0 °F - 42.8 °F 76% 30.21 in 6.2 mi WSW 10.4 mph - N/A   Mostly Cloudy
3:55 PM 50.0 °F - 42.8 °F 76% 30.21 in 6.2 mi WSW 10.4 mph - N/A   Overcast
4:25 PM 50.0 °F - 42.8 °F 76% 30.21 in 6.2 mi WSW 10.4 mph - N/A   Mostly Cloudy
4:27 PM 50.0 °F - 42.8 °F 76% 30.21 in 6.2 mi WSW 9.2 mph - N/A   Overcast
4:39 PM 50.0 °F - 42.8 °F 76% 30.21 in 6.2 mi WSW 10.4 mph - N/A   Overcast
4:44 PM 50.0 °F - 42.8 °F 76% 30.21 in 6.2 mi WSW 10.4 mph - N/A   Overcast
4:55 PM 50.0 °F - 42.8 °F 76% 30.21 in 6.2 mi WSW 9.2 mph - N/A   Overcast
5:25 PM 50.0 °F - 44.6 °F 82% 30.24 in 6.2 mi West 10.4 mph - N/A   Overcast
5:55 PM 50.0 °F - 44.6 °F 82% 30.24 in 6.2 mi WSW 10.4 mph - N/A   Overcast
6:25 PM 50.0 °F - 44.6 °F 82% 30.24 in 6.2 mi WSW 11.5 mph - N/A   Overcast
6:55 PM 50.0 °F - 44.6 °F 82% 30.24 in 6.2 mi WSW 11.5 mph - N/A   Overcast
7:25 PM 50.0 °F - 44.6 °F 82% 30.24 in 6.2 mi WSW 12.7 mph - N/A   Overcast
7:55 PM 50.0 °F - 44.6 °F 82% 30.24 in 6.2 mi WSW 12.7 mph - N/A   Overcast
8:08 PM 50.0 °F - 44.6 °F 82% 30.24 in 6.2 mi WSW 12.7 mph - N/A   Overcast
8:25 PM 48.2 °F - 44.6 °F 87% 30.24 in 6.2 mi WSW 11.5 mph - N/A   Overcast
8:55 PM 48.2 °F - 44.6 °F 87% 30.24 in 6.2 mi WSW 12.7 mph - N/A   Overcast
9:25 PM 48.2 °F - 44.6 °F 87% 30.27 in 6.2 mi WSW 12.7 mph - N/A   Overcast
9:55 PM 48.2 °F - 44.6 °F 87% 30.27 in 6.2 mi WSW 12.7 mph - N/A   Mostly Cloudy
10:25 PM 48.2 °F - 44.6 °F 87% 30.27 in 6.2 mi WSW 13.8 mph - N/A   Overcast
10:55 PM 48.2 °F - 44.6 °F 87% 30.27 in 6.2 mi WSW 12.7 mph - N/A   Overcast
11:25 PM 48.2 °F - 44.6 °F 87% 30.27 in 6.2 mi WSW 13.8 mph 25.3 mph N/A   Overcast
11:55 PM 48.2 °F - 44.6 °F 87% 30.27 in 6.2 mi WSW 12.7 mph 26.5 mph N/A   Overcast